Weather History for Chehalis, WA

Change the Weather History Date:

Wednesday, July 10, 2013

  Actual Average (KOLM) Record (KOLM)
Temperature  
Mean Temperature 63 °F 63 °F  
Max Temperature 75 °F 76 °F 94 °F (2002)
Min Temperature 51 °F 50 °F 39 °F (1981)
Degree Days  
Heating Degree Days 2 3  
Month to date heating degree days 34  
Since 1 June heating degree days 222  
Since 1 July heating degree days 34  
Cooling Degree Days 0 1  
Month to date cooling degree days 10  
Year to date cooling degree days 24  
Since 1 June cooling degree days 21  
Growing Degree Days 13 (Base 50)    
Moisture  
Dew Point 50 °F    
Average Humidity 69    
Maximum Humidity 94    
Minimum Humidity 41    
Precipitation  
Precipitation 0.00 in 0.02 in 0.51 in (1986)
Month to date precipitation 0.28  
Year to date precipitation 26.31  
Sea Level Pressure  
Sea Level Pressure 30.07 in    
Wind  
Wind Speed 5 mph (WSW)    
Max Wind Speed 10 mph    
Max Gust Speed 18 mph    
Visibility 9 miles    
Events      
T = Trace of Precipitation, MM = Missing Value Source: NWS Daily Summary

Daily Weather History Graph

Daily Weather History Graph

Search for Another Location

Airport:

Trip Planner

Search our weather history database for the weather conditions in past years. The results will help you decide how hot, cold, wet, or windy it might be!

Date:

Astronomy

Jul. 10, 2013 Rise Set
Actual Time 5:29 AM PDT 9:05 PM PDT
Civil Twilight 4:50 AM PDT 9:43 PM PDT
Nautical Twilight 3:59 AM PDT 10:34 PM PDT
Astronomical Twilight 2:50 AM PDT 11:42 PM PDT
Moon 8:07 AM PDT (7/10) 10:03 PM PDT (7/10)
Length of Visible Light 16h 52m
Length of Day
15h 36m
Waxing Crescent, 6% of the Moon is Illuminated
Jul 10
Waxing Crescent
Jul 15
First Quarter
Jul 22
Full
Jul 29
Last Quarter
Aug 6
New

Hourly Weather History & Observations

Time (PDT) Temp. Dew Point Humidity Pressure Visibility Wind Dir Wind Speed Gust Speed Precip Events Conditions
12:15 AM 57.2 °F 53.6 °F 88% 30.09 in 10.0 mi WSW 5.8 mph - N/A   Clear
12:35 AM 55.4 °F 53.6 °F 94% 30.09 in 10.0 mi SW 4.6 mph - N/A   Clear
12:55 AM 55.4 °F 53.6 °F 94% 30.09 in 10.0 mi SW 4.6 mph - N/A   Clear
1:15 AM 55.4 °F 51.8 °F 88% 30.09 in 10.0 mi SW 5.8 mph - N/A   Clear
1:35 AM 55.4 °F 51.8 °F 88% 30.09 in 6.0 mi SW 4.6 mph - N/A   Clear
1:55 AM 55.4 °F 50.0 °F 82% 30.09 in 6.0 mi WSW 4.6 mph - N/A   Clear
2:15 AM 55.4 °F 50.0 °F 82% 30.09 in 10.0 mi SW 6.9 mph - N/A   Clear
2:35 AM 55.4 °F 50.0 °F 82% 30.08 in 10.0 mi SW 5.8 mph - N/A   Clear
2:55 AM 55.4 °F 50.0 °F 82% 30.08 in 9.0 mi WSW 5.8 mph - N/A   Clear
3:15 AM 53.6 °F 50.0 °F 88% 30.08 in 10.0 mi SW 6.9 mph - N/A   Clear
3:35 AM 53.6 °F 50.0 °F 88% 30.09 in 10.0 mi SW 6.9 mph - N/A   Clear
3:55 AM 53.6 °F 50.0 °F 88% 30.09 in 8.0 mi SW 4.6 mph - N/A   Clear
4:15 AM 53.6 °F 50.0 °F 88% 30.09 in 10.0 mi SW 3.5 mph - N/A   Clear
4:35 AM 53.6 °F 50.0 °F 88% 30.09 in 9.0 mi Calm Calm - N/A   Clear
4:55 AM 51.8 °F 50.0 °F 94% 30.09 in 7.0 mi Calm Calm - N/A   Clear
5:15 AM 53.6 °F 50.0 °F 88% 30.09 in 10.0 mi Calm Calm - N/A   Clear
5:35 AM 51.8 °F 50.0 °F 94% 30.10 in 10.0 mi Calm Calm - N/A   Partly Cloudy
5:55 AM 51.8 °F 50.0 °F 94% 30.10 in 10.0 mi Calm Calm - N/A   Partly Cloudy
6:15 AM 53.6 °F 50.0 °F 88% 30.10 in 9.0 mi Calm Calm - N/A   Clear
6:35 AM 55.4 °F 50.0 °F 82% 30.10 in 10.0 mi Calm Calm - N/A   Partly Cloudy
6:55 AM 55.4 °F 50.0 °F 82% 30.11 in 10.0 mi Calm Calm - N/A   Scattered Clouds
7:15 AM 55.4 °F 50.0 °F 82% 30.11 in 8.0 mi Calm Calm - N/A   Scattered Clouds
7:35 AM 57.2 °F 50.0 °F 77% 30.11 in 10.0 mi WSW 3.5 mph - N/A   Mostly Cloudy
7:55 AM 57.2 °F 50.0 °F 77% 30.11 in 8.0 mi SW 6.9 mph - N/A   Mostly Cloudy
8:15 AM 57.2 °F 50.0 °F 77% 30.12 in 8.0 mi WSW 3.5 mph - N/A   Mostly Cloudy
8:35 AM 59.0 °F 50.0 °F 72% 30.12 in 10.0 mi SW 4.6 mph - N/A   Overcast
8:55 AM 59.0 °F 50.0 °F 72% 30.12 in 10.0 mi WSW 4.6 mph - N/A   Mostly Cloudy
9:15 AM 60.8 °F 51.8 °F 72% 30.12 in 8.0 mi SW 9.2 mph - N/A   Mostly Cloudy
9:35 AM 60.8 °F 51.8 °F 72% 30.11 in 10.0 mi WSW 4.6 mph - N/A   Overcast
9:55 AM 60.8 °F 51.8 °F 72% 30.11 in 10.0 mi West 5.8 mph - N/A   Overcast
10:15 AM 62.6 °F 51.8 °F 68% 30.11 in 9.0 mi SW 6.9 mph - N/A   Overcast
10:35 AM 64.4 °F 51.8 °F 64% 30.11 in 9.0 mi SSW 8.1 mph - N/A   Overcast
10:55 AM 64.4 °F 51.8 °F 64% 30.11 in 5.0 mi SW 5.8 mph - N/A   Haze
11:15 AM 64.4 °F 51.8 °F 64% 30.10 in 10.0 mi WSW 5.8 mph - N/A   Scattered Clouds
11:35 AM 66.2 °F 53.6 °F 64% 30.10 in 9.0 mi WSW 8.1 mph - N/A   Clear
11:55 AM 66.2 °F 51.8 °F 60% 30.10 in 10.0 mi West 4.6 mph - N/A   Clear
12:15 PM 66.2 °F 53.6 °F 64% 30.09 in 10.0 mi SW 5.8 mph - N/A   Clear
12:35 PM 68.0 °F 53.6 °F 60% 30.09 in 10.0 mi SW 6.9 mph - N/A   Clear
12:55 PM 68.0 °F 51.8 °F 56% 30.08 in 10.0 mi SW 10.4 mph - N/A   Clear
1:15 PM 71.6 °F 51.8 °F 50% 30.08 in 9.0 mi West 4.6 mph - N/A   Clear
1:35 PM 71.6 °F 51.8 °F 50% 30.07 in 10.0 mi West 6.9 mph 18.4 mph N/A   Clear
1:55 PM 71.6 °F 50.0 °F 46% 30.06 in 10.0 mi West 6.9 mph - N/A   Clear
2:15 PM 73.4 °F 51.8 °F 47% 30.05 in 10.0 mi West 3.5 mph - N/A   Clear
2:35 PM 73.4 °F 50.0 °F 44% 30.05 in 10.0 mi North 4.6 mph - N/A   Clear
2:55 PM 73.4 °F 51.8 °F 47% 30.04 in 10.0 mi SW 6.9 mph - N/A   Clear
3:15 PM 75.2 °F 51.8 °F 44% 30.04 in 9.0 mi WSW 6.9 mph - N/A   Clear
3:35 PM 75.2 °F 51.8 °F 44% 30.04 in 10.0 mi West 3.5 mph - N/A   Clear
3:55 PM 75.2 °F 50.0 °F 41% 30.03 in 10.0 mi NNW 8.1 mph - N/A   Clear
4:15 PM 73.4 °F 50.0 °F 44% 30.03 in 10.0 mi NNW 9.2 mph 18.4 mph N/A   Clear
4:35 PM 73.4 °F 50.0 °F 44% 30.03 in 10.0 mi NNW 8.1 mph - N/A   Clear
4:55 PM 73.4 °F 50.0 °F 44% 30.02 in 9.0 mi NNW 8.1 mph - N/A   Clear
5:15 PM 73.4 °F 50.0 °F 44% 30.02 in 10.0 mi NW 5.8 mph - N/A   Clear
5:35 PM 71.6 °F 50.0 °F 46% 30.02 in 10.0 mi SW 3.5 mph - N/A   Clear
5:55 PM 71.6 °F 48.2 °F 43% 30.02 in 8.0 mi NNW 3.5 mph - N/A   Clear
6:15 PM 69.8 °F 48.2 °F 46% 30.01 in 9.0 mi West 4.6 mph - N/A   Clear
6:35 PM 68.0 °F 48.2 °F 49% 30.01 in 9.0 mi West 4.6 mph - N/A   Clear
6:55 PM 66.2 °F 48.2 °F 52% 30.01 in 8.0 mi WNW 5.8 mph - N/A   Clear
7:15 PM 66.2 °F 48.2 °F 52% 30.01 in 10.0 mi West 5.8 mph - N/A   Clear
7:35 PM 62.6 °F 46.4 °F 55% 30.02 in 8.0 mi West 5.8 mph - N/A   Clear
7:55 PM 62.6 °F 48.2 °F 59% 30.02 in 8.0 mi West 5.8 mph - N/A   Clear
8:15 PM 60.8 °F 48.2 °F 63% 30.02 in 8.0 mi West 3.5 mph - N/A   Clear
8:35 PM 59.0 °F 48.2 °F 67% 30.02 in 10.0 mi West 4.6 mph - N/A   Clear
8:55 PM 57.2 °F 46.4 °F 67% 30.03 in 8.0 mi West 4.6 mph - N/A   Clear
9:15 PM 57.2 °F 46.4 °F 67% 30.03 in 5.0 mi West 4.6 mph - N/A   Haze
9:35 PM 55.4 °F 46.4 °F 72% 30.04 in 9.0 mi West 4.6 mph - N/A   Clear
9:55 PM 55.4 °F 46.4 °F 72% 30.04 in 10.0 mi West 4.6 mph - N/A   Clear
10:15 PM 55.4 °F 46.4 °F 72% 30.04 in 10.0 mi West 4.6 mph - N/A   Clear
10:35 PM 53.6 °F 46.4 °F 77% 30.05 in 10.0 mi West 3.5 mph - N/A   Clear
10:55 PM 53.6 °F 46.4 °F 77% 30.05 in 9.0 mi SW 3.5 mph - N/A   Clear
11:15 PM 53.6 °F 46.4 °F 77% 30.05 in 10.0 mi WSW 4.6 mph - N/A   Clear
11:35 PM 53.6 °F 46.4 °F 77% 30.06 in 10.0 mi SW 3.5 mph - N/A   Clear
11:55 PM 53.6 °F 46.4 °F 77% 30.06 in 7.0 mi SW 4.6 mph - N/A   Clear